Retour au catalogue

NOAA 16 DEB

ActifPO
NORAD 41273·DEBRIS·🇺🇸 United States

Lancé Sep 21, 2000 depuis Vandenberg Space Force Base

Loading…

Prochains Passages (prochaines 24 heures)

TLE

FraisSource: Space-Track

Époque: Sep 13, 2026, 16:51 UTC

1 41273U 00055FZ  26256.70275038  .00016469  00000-0  20792-2 0  9998
2 41273  98.9084 169.3492 0030418   9.7115 350.4676 14.81673089563440

Suivez NOAA 16 DEB en temps réel avec AllMySat

Download on the App Store